Terminal Aerodrome Forecast
Issued by NWS Duluth, MN

Home | Current Version | Previous Version | Text Only | Print | Product List | Glossary On
Versions: 1 2 3 4 5 6 7 8 9 10 11 12 13 14 15 16 17 18 19 20 21 22
000
FTUS43 KDLH 111100
TAFDLH
TAF
KDLH 111137Z 1112/1212 17010KT P6SM VCSH SCT015 BKN025 OVC050
      TEMPO 1112/1114 BKN017
     FM111400 18011KT P6SM SCT020 BKN035
     FM111800 23010KT P6SM SCT040 SCT050
     FM112100 24010KT P6SM VCTS BKN050CB
     FM120300 25005KT P6SM SCT035
     FM121100 32005KT 1 1/2SM BR FEW010=

USA.gov is the U.S. government's official web portal to all federal, state and local government web resources and services.